Regional Weather Roundup
Issued by NWS

Home | Current Version | Previous Version | Graphics & Text | Print | Product List | Glossary On
Versions: 1 2 3 4 5 6 7 8 9 10 11 12 13 14 15 16 17 18 19 20 21 22 23 24 25 26 27 28 29 30 31 32 33 34 35 36 37 38 39 40 41 42 43 44 45 46 47 48 49 50
898
ASUS43 KMKX 140011
RWRWI

WISCONSIN REGIONAL WEATHER ROUNDUP
NATIONAL WEATHER SERVICE MILWAUKEE/SULLIVAN WI
600 PM CST SAT FEB 13 2016

NOTE: "FAIR" INDICATES FEW OR NO CLOUDS BELOW 12,000 FEET WITH NO
SIGNIFICANT WEATHER AND/OR OBSTRUCTIONS TO VISIBILITY.

WIZ001-002-006>008-014>016-023>028-140100-
NORTHWEST WISCONSIN

CITY           SKY/WX    TMP DP  RH WIND       PRES   REMARKS
SUPERIOR ARPT  CLOUDY     8 -13  38 CALM      30.44S
6HR MIN TEMP:   1; 6HR MAX TEMP:  11;

ASHLAND        CLOUDY     2 -13  49 CALM      30.43F
6HR MIN TEMP:   1; 6HR MAX TEMP:  10;

HAYWARD        CLOUDY     4 -12  48 CALM      30.40F
6HR MIN TEMP:   0; 6HR MAX TEMP:   9;

SIREN          CLOUDY     3 -12  48 CALM      30.42S
6HR MIN TEMP:   2; 6HR MAX TEMP:  10;

CUMBERLAND     CLOUDY     1 -17  42 SE3       30.39F
RICE LAKE      CLOUDY     5 -13  43 CALM      30.43F
6HR MIN TEMP:   0; 6HR MAX TEMP:   7;

CHETEK         CLOUDY     2 -12  50 CALM      30.42F
6HR MIN TEMP:   1; 6HR MAX TEMP:   8;

LADYSMITH      CLOUDY     6 -12  42 SE5       30.42F WCI  -2
6HR MIN TEMP:   3; 6HR MAX TEMP:  11;

EAU CLAIRE     CLOUDY     4 -13  45 CALM      30.45F
6HR MIN TEMP:   1; 6HR MAX TEMP:   8;

MENOMONIE      CLOUDY     5 -15  40 E5        30.45F WCI  -4
6HR MIN TEMP:   5; 6HR MAX TEMP:  20;

NEW RICHMOND   CLOUDY     4 -12  47 CALM      30.43F
6HR MIN TEMP:   2; 6HR MAX TEMP:   8;

OSCEOLA        CLOUDY     4 -10  51 SE5       30.46F WCI  -5
6HR MIN TEMP:   3; 6HR MAX TEMP:  10;

$$

WIZ003>005-009-010-017-018-140100-
NORTH CENTRAL WISCONSIN

CITY           SKY/WX    TMP DP  RH WIND       PRES   REMARKS
MANITOWISH WTR CLOUDY    -2 -11  65 CALM      30.35S
6HR MIN TEMP:  -2; 6HR MAX TEMP:   8;

ARBOR VITAE    CLEAR      3  -9  57 CALM      30.36S
6HR MIN TEMP:   3; 6HR MAX TEMP:  11;

WOODRUFF       CLEAR      3  -9  57 CALM      30.36S
6HR MIN TEMP:   3; 6HR MAX TEMP:  11;

RHINELANDER    CLEAR      6 -11  45 CALM      30.37S
6HR MIN TEMP:   4; 6HR MAX TEMP:  10;

EAGLE RIVER    CLEAR      2  -8  60 CALM      30.35F
LAND O LAKES   CLEAR     -2  -8  76 CALM      30.36S
6HR MIN TEMP:  -2; 6HR MAX TEMP:  11;

PHILLIPS       CLOUDY     2 -13  49 SW5       30.37S WCI  -7
TOMAHAWK       CLEAR      2 -12  52 CALM      30.38F
6HR MIN TEMP:   2; 6HR MAX TEMP:  10;

MEDFORD        CLOUDY     0 -11  59 S3        30.38F
6HR MIN TEMP:   0; 6HR MAX TEMP:   8;

MERRILL        CLOUDY     3  -9  55 SW3       30.41S
$$

WIZ029-030-035-036-043>047-140100-
CENTRAL WISCONSIN

CITY           SKY/WX    TMP DP  RH WIND       PRES   REMARKS
WAUSAU         CLOUDY     5 -10  50 SW5       30.41F WCI  -4
6HR MIN TEMP:   4; 6HR MAX TEMP:   8;

MOSINEE        CLEAR      1  -9  60 SW6       30.43F WCI -10
MARSHFIELD     CLOUDY     5 -12  45 CALM      30.41F
6HR MIN TEMP:   1; 6HR MAX TEMP:   9;

STEVENS POINT  CLOUDY     3 -11  51 CALM      30.45F
6HR MIN TEMP:   3; 6HR MAX TEMP:   7;

WAUPACA        CLEAR      8 -10  43 W5        30.48S WCI   0
6HR MIN TEMP:   8; 6HR MAX TEMP:  14;

WAUTOMA        CLOUDY     4 -11  50 CALM      30.48F
6HR MIN TEMP:   4; 6HR MAX TEMP:  12;

WISC RAPIDS    CLOUDY     5 -11  47 NE5       30.46F WCI  -4
6HR MIN TEMP:   5; 6HR MAX TEMP:  11;

CAMP DOUGLAS   CLOUDY     4  -9  54 CALM      30.46F
6HR MIN TEMP:   4; 6HR MAX TEMP:  13;

$$

WIZ011>013-019>022-031-037>040-048>050-140100-
NORTHEAST WISCONSIN

CITY           SKY/WX    TMP DP  RH WIND       PRES   REMARKS
ANTIGO         CLEAR      2 -10  58 SW7       30.38S WCI -11
6HR MIN TEMP:   2; 6HR MAX TEMP:  10;

SHAWANO        CLEAR     12  -7  43 CALM      30.46S
6HR MIN TEMP:  10; 6HR MAX TEMP:  16;

OCONTO         CLEAR      9  -6  52 SW5       30.47S WCI   0
6HR MIN TEMP:   9; 6HR MAX TEMP:  14;

STURGEON BAY   CLEAR      7  -8  51 S6        30.48F WCI  -3
6HR MIN TEMP:   7; 6HR MAX TEMP:  10;

GREEN BAY      CLEAR      8  -6  52 S5        30.48S WCI   0
6HR MIN TEMP:   6; 6HR MAX TEMP:  11;

MANITOWOC      CLEAR      6  -6  57 W5        30.50F WCI  -3
6HR MIN TEMP:   6; 6HR MAX TEMP:  12;

APPLETON       PTCLDY     9  -9  43 SW5       30.45S WCI   0
CLINTONVILLE   CLEAR     10  -9  40 W5        30.46S WCI   2
OSHKOSH        CLEAR      6  -8  52 S5        30.48S WCI  -3
6HR MIN TEMP:   5; 6HR MAX TEMP:  11;

$$

WIZ032>034-041-042-053>061-140100-
SOUTHWEST WISCONSIN

CITY           SKY/WX    TMP DP  RH WIND       PRES   REMARKS
LA CROSSE      CLOUDY     5  -9  52 W3        30.48F
6HR MIN TEMP:   5; 6HR MAX TEMP:  14;

SPARTA         CLOUDY     4 -11  48 CALM      30.48S
6HR MIN TEMP:   4; 6HR MAX TEMP:  12;

VIROQUA        CLOUDY     7 -10  45 CALM      30.42F
6HR MIN TEMP:   4; 6HR MAX TEMP:  13;

BOSCOBEL       CLOUDY     8  -9  45 S5        30.50F HAZE    WCI   0
6HR MIN TEMP:   8; 6HR MAX TEMP:  16; 6HR PCP: TRACE;

PRAIRIE DU CHI CLOUDY     8  -7  50 CALM      30.51S
6HR MIN TEMP:   7; 6HR MAX TEMP:  13;

PLATTEVILLE    CLEAR      7  -5  57 SE3       30.47S
6HR MIN TEMP:   5; 6HR MAX TEMP:  10;

$$

WIZ056-057-062-063-064-067-068-140100-
SOUTH CENTRAL WISCONSIN

CITY           SKY/WX    TMP DP  RH WIND       PRES   REMARKS
REEDSBURG      CLOUDY     8 -10  43 CALM      30.47S
6HR MIN TEMP:   4; 6HR MAX TEMP:  11;

BARABOO/DELLS  CLOUDY     7 -10  46 S3        30.46F
6HR MIN TEMP:   5; 6HR MAX TEMP:  11;

LONE ROCK      CLOUDY     6  -8  52 NE5       30.50S WCI  -3
6HR MIN TEMP:   6; 6HR MAX TEMP:  15;

MINERAL POINT  CLOUDY     9  -8  47 S5        30.45S WCI   0
MADISON        CLOUDY     6  -9  50 CALM      30.48F
6HR MIN TEMP:   5; 6HR MAX TEMP:  12;

MIDDLETON      CLOUDY     8  -4  56 CALM      30.48S
6HR MIN TEMP:   8; 6HR MAX TEMP:  14;

WATERTOWN      CLOUDY     8  -6  53 CALM      30.49R
6HR MIN TEMP:   7; 6HR MAX TEMP:  10;

MONROE         CLOUDY    10  -6  48 CALM      30.46R
JANESVILLE     CLEAR     12  -4  48 CALM      30.49F
$$

WIZ051-052-058>065-066-070>072-140100-
SOUTHEAST WISCONSIN

CITY           SKY/WX    TMP DP  RH WIND       PRES   REMARKS
MILWAUKEE      PTCLDY    10  -8  44 NW9       30.51S WCI  -3
6HR MIN TEMP:  10; 6HR MAX TEMP:  13;

WAUKESHA       CLEAR      7  -8  51 NW6       30.49F WCI  -3
MILWAUKEE/TIMM CLEAR      9  -8  47 W6        30.51F WCI  -1
RACINE         CLEAR     10  -8  44 NW5       30.52F WCI   2
6HR MIN TEMP:  10; 6HR MAX TEMP:  13;

BURLINGTON     CLOUDY     8  -8  49 CALM      30.49F
6HR MIN TEMP:   7; 6HR MAX TEMP:  12;

KENOSHA        CLEAR     11  -5  48 NW5       30.50F WCI   3
6HR MIN TEMP:  10; 6HR MAX TEMP:  15;

FOND DU LAC    CLEAR      5  -7  57 S3        30.49S
6HR MIN TEMP:   4; 6HR MAX TEMP:  10; 6HR PCP: TRACE;

SHEBOYGAN      CLEAR      6  -7  54 W3        30.49F
6HR MIN TEMP:   6; 6HR MAX TEMP:   9;

WEST BEND      CLEAR      7  -8  51 CALM      30.49R
JUNEAU         CLOUDY     5  -6  61 CALM      30.49S
6HR MIN TEMP:   4; 6HR MAX TEMP:   9;

$$

LSZ147-162-140100-
LAKE SUPERIOR

STATION/POSITION TIME  TEMP    WIND        PRES    WAVE
                       AIR SEA DIR/SP/G            HT/PER
                 (UTC) (F)     (DEG/KT/KT) (MB)    (FT/S)
DEVILS ISLAND    0000    8     150/  4/  4 1032.9F
SAXON HARBOR     2300    6                 1030.8F
$$

LMZ867-665-643>646-140100-
LAKE MICHIGAN

STATION/POSITION TIME  TEMP    WIND        PRES    WAVE
                       AIR SEA DIR/SP/G            HT/PER
                 (UTC) (F)     (DEG/KT/KT) (MB)    (FT/S)
CHAMBERS ISLAND  2300   10     180/  6/ 11 1031.5S
SISTER BAY       2320   10      10/  5/  7   N/A
ALGOMA LAKESHORE 2311             CALM       N/A
KEWAUNEE LAKESHC1F1C2F2C3F3C4F4C5F5C6F6C7F7C8M1C9M2Ca!



USA.gov is the U.S. government's official web portal to all federal, state and local government web resources and services.